Regional Weather Roundup
Issued by NWS

Home | Current Version | Previous Version | Graphics & Text | Print | Product List | Glossary On
Versions: 1 2 3 4 5 6 7 8 9 10 11 12 13 14 15 16 17 18 19 20 21 22 23 24 25 26 27 28
000
ASUS45 KBOI 220110
RWRID

IDAHO REGIONAL WEATHER ROUNDUP
NATIONAL WEATHER SERVICE BOISE ID
700 PM MDT THU SEP 21 2017

NOTE: "FAIR" INDICATES FEW OR NO CLOUDS BELOW 12000 FEET
WITH NO SIGNIFICANT WEATHER AND/OR OBSTRUCTIONS TO VISIBILITY

IDZ012-014-220200-
SOUTHWEST IDAHO


CITY           SKY/WX    TMP DP  RH WIND       PRES   REMARKS
BOISE          MOCLDY    56  33  42 NW10      29.80R
CALDWELL       MOCLDY    58  32  37 NW9       29.81R
MOUNTAIN HOME  MOCLDY    55  37  51 N7        29.80S
$$

IDZ016-017-220200-
SOUTHCENTRAL IDAHO


CITY           SKY/WX    TMP DP  RH WIND       PRES   REMARKS
BURLEY         CLOUDY    45  39  79 W5        29.79F
JEROME         CLOUDY    45  41  86 S5        29.81F
TWIN FALLS     CLOUDY    44  39  82 S3        29.81F
$$

IDZ019>023-220200-
SOUTHEAST IDAHO


CITY           SKY/WX    TMP DP  RH WIND       PRES   REMARKS
IDAHO FALLS    LGT RAIN  42  39  89 VRB3      29.80F
POCATELLO      LGT RAIN  42  40  92 E3        29.82R
REXBURG        LGT RAIN  42  39  89 NE3       29.80F
$$

IDZ006-010-011-018-031-032-220200-
CENTRAL IDAHO MOUNTAINS


CITY           SKY/WX    TMP DP  RH WIND       PRES   REMARKS
MCCALL         CLOUDY    46  31  55 N9        29.81R
HAILEY         CLOUDY    43  37  81 SE6       29.82R
STANLEY          N/A     34  33  96 N3        29.82R
SALMON         CLOUDY    51  31  46 SE6       29.82R
CHALLIS        CLOUDY    47  30  51 NE7       29.79R
$$

IDZ002-004-006-007-026-220200-
NORTHERN IDAHO


CITY           SKY/WX    TMP DP  RH WIND       PRES   REMARKS
LEWISTON       PTCLDY    58  42  55 NW6       29.89S
LOWELL           N/A     50  43  77 CALM      29.86F
COEUR D`ALENE  MOCLDY    49  42  77 NE6       29.94S
MULLAN PASS    FOG       33  31  92 NW5       29.90S VSB<1/4 WCI  29
$$




USA.gov is the U.S. government's official web portal to all federal, state and local government web resources and services.